Wetbulb
53.85 53.13 55.97 59.78 60.41 60.12 59.62 58.49 55.78 52.50 53.26 56.10 57.02 59.47 59.87 61.21 60.20 59.78 59.92 56.54 58.50 59.83 60.92 60.87 59.94 60.12 60.83 62.33 62.70 62.92 62.47 61.11 60.08 58.54 56.77 55.36 54.71 54.61
50.32 50.29 51.58 52.26 53.38 55.50 58.81 59.05 58.36 56.31 53.71 56.43 56.87 56.91 58.05 57.82 57.93 58.80 58.23 55.01 56.34 58.08 58.34 57.68 57.77 58.42 59.29 60.33 60.88 60.82 60.31 58.94 57.88 57.22 56.33 55.33 54.73 54.11
47.40 47.63 48.46 49.77 50.16 51.85 52.14 54.15 57.44 57.26 54.59 55.67 56.64 57.19 54.94 55.56 55.15 56.18 56.57 56.69 57.30 56.09 57.66 57.44 56.89 56.96 58.03 58.81 58.68 58.50 57.94 57.34 56.45 55.80 55.34 54.65 54.08 53.01
43.24 44.67 45.54 47.39 48.12 49.24 48.34 48.40 49.82 50.40 53.64 54.16 55.97 52.89 53.77 54.22 55.48 54.64 54.64 55.48 56.39 55.81 55.88 56.30 56.31 56.24 57.22 56.89 56.49 56.10 55.40 55.19 54.68 54.14 53.67 53.23 52.40 51.62
42.31 42.70 43.70 44.90 44.66 44.14 45.22 46.92 48.06 49.34 49.12 48.99 53.52 52.70 53.20 50.66 51.19 52.21 52.66 53.63 53.70 53.34 55.68 55.84 56.56 56.48 56.19 55.36 54.91 54.22 53.25 52.71 52.16 51.64 51.39 50.69 49.83 49.30
41.05 41.38 41.20 41.98 41.03 42.41 43.55 44.23 45.54 45.46 47.27 47.40 48.23 48.42 47.38 47.15 49.19 47.35 45.81 46.41 49.10 49.65 53.43 54.90 55.66 54.76 54.43 54.06 53.21 51.54 50.38 50.43 50.30 49.29 48.36 47.31 46.20 45.53
38.82 39.09 40.05 40.82 41.40 43.05 41.35 42.31 42.32 41.98 43.19 44.09 45.39 45.74 44.94 44.74 45.47 46.91 47.47 45.94 44.56 45.68 48.54 49.76 51.36 51.52 52.17 52.44 50.66 49.23 49.19 48.98 48.64 47.72 46.66 45.63 44.43 43.80
36.63 37.47 38.32 39.33 40.09 40.91 42.56 42.94 42.26 40.02 40.31 40.56 42.10 43.33 45.69 46.72 46.97 46.06 45.05 40.98 39.76 44.06 46.28 47.00 49.59 48.65 49.64 50.15 49.96 49.01 48.32 47.99 47.31 46.29 45.59 45.06 44.00 42.94
36.83 36.78 36.68 37.45 38.84 37.94 39.60 40.54 41.01 42.10 41.97 40.37 40.19 42.16 44.62 46.76 48.26 44.98 44.58 42.96 44.44 43.55 47.15 45.16 45.43 45.65 47.90 48.59 49.29 48.34 47.70 47.16 46.47 45.52 44.73 43.98 42.97 42.08
36.68 36.19 35.91 36.01 36.83 37.20 36.14 35.75 36.57 37.82 39.01 39.75 39.61 40.65 42.64 44.09 44.28 44.76 46.83 46.47 41.86 41.10 47.01 44.24 43.32 44.66 45.65 46.97 49.06 48.20 47.32 46.75 46.00 45.42 44.34 43.32 42.27 41.86
36.24 36.51 36.29 35.45 36.94 37.05 34.55 33.54 33.92 34.77 37.68 38.83 39.96 41.24 42.08 43.87 44.37 44.14 42.14 42.58 40.57 36.89 42.78 41.30 36.92 38.97 39.82 40.50 46.84 48.02 47.15 46.63 46.05 45.46 44.18 42.89 41.81 42.07
35.00 35.52 37.29 35.76 36.20 36.32 33.96 32.35 30.59 31.66 33.16 34.23 35.04 36.75 39.36 40.59 43.71 43.37 43.35 41.58 42.24 36.22 38.19 39.83 34.06 33.92 33.83 34.90 39.20 45.87 45.62 46.38 45.73 44.78 43.74 42.57 42.17 37.57
32.94 33.43 34.81 36.25 36.09 36.03 36.23 33.60 32.95 34.35 33.96 33.04 32.66 33.84 35.99 37.57 39.46 41.65 42.95 42.15 41.75 41.54 38.99 41.80 35.17 34.25 34.21 31.18 34.71 41.33 43.28 43.52 42.71 42.73 43.31 42.45 42.04 39.29
32.22 33.69 34.45 36.04 36.12 36.35 35.96 36.14 35.94 35.20 32.37 31.28 31.81 32.59 33.64 34.85 36.26 38.30 40.16 41.78 43.79 43.65 40.60 43.04 34.17 39.17 35.31 29.79 30.89 34.87 40.21 41.97 40.73 38.90 38.50 41.45 41.66 40.87
34.02 35.02 36.06 35.94 35.99 35.29 35.88 35.50 34.87 32.15 31.52 30.47 30.26 31.13 32.53 34.42 35.21 36.98 37.76 35.95 35.80 35.50 38.38 41.39 40.34 37.78 38.51 35.39 30.31 32.83 35.58 37.36 38.42 37.26 37.44 37.45 36.21 34.54
34.98 34.52 34.96 35.38 35.66 34.89 34.32 33.29 32.50 31.89 30.58 30.14 30.47 31.77 32.58 32.33 32.82 35.37 35.80 36.82 34.94 36.59 32.49 37.27 38.48 36.92 37.22 36.10 34.70 32.71 36.97 32.72 36.25 36.77 36.60 35.77 34.74 34.49
33.37 32.59 31.87 31.41 31.16 31.66 31.34 31.35 31.29 30.87 30.14 30.19 29.36 29.47 29.83 31.11 31.54 34.61 34.67 34.67 33.43 34.98 30.67 31.26 33.13 35.56 34.93 33.83 33.38 34.26 34.67 32.87 35.62 35.25 34.56 33.17 33.60 33.40
30.67 29.16 29.20 29.74 29.40 29.10 28.72 28.80 29.67 30.13 29.78 29.57 28.59 29.45 29.91 30.59 30.39 32.47 33.23 32.59 32.16 33.28 33.02 29.29 31.70 31.20 31.19 31.54 34.26 33.89 34.21 33.00 34.45 34.23 34.37 32.37 31.05 32.05
29.07 28.77 28.62 29.28 28.79 28.66 28.53 28.33 27.91 29.42 30.03 29.04 28.23 28.25 29.87 31.02 31.46 31.21 32.27 31.72 31.61 32.64 32.75 30.57 31.85 32.95 30.37 29.81 28.58 35.67 33.18 32.82 33.00 32.60 33.22 32.19 30.69 31.18
29.00 28.03 28.15 28.78 28.75 27.80 27.88 27.80 27.89 28.07 28.83 27.62 28.03 27.85 29.53 30.19 30.25 31.02 31.69 31.68 31.71 32.11 29.54 29.99 31.47 32.00 32.75 29.35 25.89 28.16 33.97 32.43 32.43 31.82 31.75 30.34 32.12 35.12
26.36 26.48 27.17 27.10 27.03 27.34 27.50 27.63 26.95 27.52 27.32 27.32 27.41 27.63 28.68 29.88 29.87 31.26 31.74 33.78 33.17 31.28 28.15 28.59 31.59 34.53 31.43 30.81 26.79 26.58 29.20 32.46 33.15 32.45 31.22 29.24 26.66 25.59
25.81 25.86 26.17 26.48 26.73 26.75 26.96 26.97 26.54 26.77 26.62 26.72 26.81 27.40 28.52 29.93 29.05 30.83 31.48 31.34 31.63 31.09 30.64 30.80 31.16 31.44 31.80 30.38 25.98 25.30 27.44 30.36 33.20 34.61 33.96 32.77 27.34 23.64
25.77 25.46 25.36 25.82 26.09 26.19 26.02 25.80 25.70 25.93 26.79 27.43 27.16 27.63 28.82 28.15 29.51 30.81 31.58 31.62 31.72 30.59 29.02 27.82 29.82 31.17 31.12 28.73 26.51 25.84 26.64 28.49 29.10 28.15 28.56 32.23 32.55 34.35
MSLP
1010.88 1010.54 1009.88 1008.89 1008.62 1008.50 1008.52 1008.32 1008.24 1007.79 1007.19 1006.98 1006.97 1006.90 1007.49 1007.87 1008.17 1008.64 1008.38 1008.97 1009.26 1009.82 1009.62 1010.12 1010.20 1010.79 1011.55 1011.52 1011.61 1012.04 1012.65 1013.42 1013.91 1014.63 1015.25 1015.72 1015.90 1016.09
1011.19 1011.08 1010.44 1010.17 1009.64 1008.95 1008.23 1007.61 1007.51 1007.08 1006.53 1006.40 1006.50 1006.68 1006.90 1007.35 1007.59 1007.73 1007.83 1008.16 1008.65 1009.12 1009.29 1009.48 1009.46 1009.69 1010.62 1010.89 1011.03 1011.54 1012.21 1012.89 1013.60 1014.31 1014.82 1015.27 1015.60 1015.71
1011.53 1011.39 1010.99 1010.54 1010.00 1009.50 1009.09 1008.18 1007.03 1006.41 1006.11 1006.03 1006.10 1006.28 1006.75 1006.92 1007.19 1007.38 1007.74 1008.08 1007.85 1008.12 1008.38 1008.43 1008.54 1008.81 1009.61 1010.11 1010.44 1010.98 1011.80 1012.38 1013.40 1013.92 1014.42 1014.76 1015.24 1015.41
1011.75 1011.39 1011.25 1010.62 1010.05 1010.10 1009.67 1009.02 1008.43 1007.87 1007.29 1005.94 1005.51 1005.95 1006.05 1006.42 1006.57 1006.84 1007.11 1007.23 1007.21 1007.35 1007.35 1007.72 1007.65 1008.24 1008.81 1009.27 1009.70 1010.29 1011.36 1012.33 1012.95 1013.69 1014.11 1014.55 1014.89 1015.20
1012.00 1011.75 1011.50 1010.91 1010.62 1010.49 1009.97 1009.31 1008.77 1008.44 1007.85 1007.01 1005.83 1005.62 1006.11 1006.37 1006.48 1006.54 1006.54 1006.59 1006.51 1006.49 1006.70 1006.72 1006.81 1007.29 1008.12 1008.47 1009.13 1009.99 1011.00 1011.79 1012.71 1013.25 1013.83 1014.39 1014.55 1014.92
1012.15 1011.82 1011.60 1011.33 1011.17 1010.69 1010.18 1009.84 1009.42 1008.92 1008.10 1007.58 1007.01 1006.66 1006.36 1006.39 1006.31 1006.59 1006.53 1006.52 1006.47 1006.44 1006.29 1006.14 1006.18 1006.77 1007.38 1007.89 1008.89 1009.94 1010.71 1011.39 1012.11 1012.89 1013.61 1014.15 1014.37 1014.67
1012.22 1011.85 1011.52 1011.29 1011.08 1010.75 1010.55 1010.13 1009.84 1009.41 1008.85 1008.16 1007.55 1007.11 1006.86 1006.79 1006.46 1006.03 1006.17 1006.34 1006.56 1006.53 1006.27 1006.25 1006.39 1006.62 1007.03 1007.86 1008.69 1009.62 1010.28 1011.04 1011.89 1012.79 1013.30 1013.63 1013.94 1014.40
1012.16 1011.95 1011.69 1011.21 1010.85 1010.67 1010.36 1010.31 1010.18 1009.74 1009.17 1008.68 1008.11 1007.48 1007.06 1006.64 1006.24 1006.11 1006.06 1006.42 1006.64 1006.09 1006.08 1006.17 1006.20 1006.56 1006.90 1007.41 1008.23 1008.96 1009.80 1010.72 1011.58 1012.26 1012.86 1013.41 1013.76 1014.01
1012.33 1012.04 1011.66 1011.21 1010.94 1010.58 1010.40 1010.20 1009.78 1009.46 1009.18 1008.90 1008.27 1007.80 1007.06 1006.69 1006.36 1005.90 1005.75 1005.63 1005.46 1005.36 1005.58 1005.92 1006.22 1006.45 1006.96 1007.41 1007.84 1008.43 1009.22 1010.03 1010.94 1011.56 1012.32 1012.89 1013.49 1013.72
1012.24 1011.90 1011.53 1011.21 1011.04 1010.87 1010.75 1010.34 1009.95 1009.41 1009.04 1008.79 1008.38 1007.83 1007.42 1007.17 1006.81 1006.44 1005.67 1004.90 1005.07 1005.04 1005.16 1005.32 1005.83 1005.94 1006.37 1006.79 1007.29 1007.97 1008.77 1009.55 1010.14 1010.67 1011.48 1012.33 1012.85 1013.16
1011.73 1011.33 1011.10 1011.01 1010.79 1010.80 1010.62 1010.19 1009.71 1009.36 1009.09 1008.70 1008.21 1007.69 1007.27 1006.88 1006.51 1006.24 1005.51 1005.00 1004.76 1004.91 1004.86 1004.87 1005.73 1006.05 1006.48 1006.56 1006.75 1007.23 1007.98 1008.82 1009.76 1010.20 1010.69 1011.54 1012.24 1012.65
1011.49 1011.13 1010.81 1010.75 1010.76 1010.75 1010.50 1010.15 1009.72 1009.31 1008.73 1008.06 1007.65 1007.22 1006.65 1006.05 1005.61 1005.45 1005.33 1004.66 1004.31 1004.36 1004.36 1004.91 1005.49 1005.97 1006.91 1006.71 1006.47 1006.72 1007.52 1008.32 1009.05 1009.66 1010.30 1011.22 1011.74 1012.39
1011.44 1010.91 1010.52 1010.38 1010.40 1010.27 1009.90 1009.61 1009.17 1008.72 1008.32 1007.88 1007.41 1006.68 1006.00 1005.52 1005.10 1004.67 1004.49 1004.40 1003.69 1002.91 1002.90 1003.59 1004.47 1005.10 1005.53 1006.26 1006.36 1006.32 1006.67 1007.52 1008.50 1009.15 1009.62 1010.40 1011.20 1011.89
1011.30 1010.77 1010.33 1010.07 1009.90 1009.58 1009.23 1008.86 1008.43 1008.14 1007.74 1007.34 1006.89 1006.37 1005.68 1005.04 1004.72 1004.35 1003.95 1003.52 1003.12 1002.44 1002.06 1002.25 1002.73 1003.28 1004.24 1005.51 1005.98 1006.00 1006.33 1006.78 1007.53 1008.22 1009.13 1009.67 1010.77 1011.33
1010.84 1010.34 1009.96 1009.48 1009.04 1008.67 1008.38 1008.08 1007.82 1007.57 1007.19 1006.85 1006.36 1005.87 1005.60 1005.34 1004.66 1003.92 1003.30 1002.85 1002.39 1001.77 1001.47 1001.54 1001.25 1001.98 1002.65 1003.39 1004.29 1004.82 1005.55 1006.02 1006.75 1007.54 1008.33 1009.06 1009.98 1011.02
1010.46 1010.00 1009.51 1009.25 1008.82 1008.44 1008.11 1007.92 1007.72 1007.45 1007.13 1006.81 1006.40 1005.79 1005.32 1004.69 1004.00 1003.38 1002.60 1002.15 1001.85 1001.18 1001.00 1000.99 1000.79 1001.12 1001.68 1002.17 1002.72 1003.82 1004.24 1004.92 1005.89 1006.73 1007.54 1008.80 1009.71 1010.64
1010.19 1009.69 1009.19 1008.78 1008.37 1008.00 1007.82 1007.55 1007.28 1006.99 1006.65 1006.29 1005.96 1005.33 1004.76 1004.13 1003.41 1002.72 1001.93 1001.48 1001.16 1000.87 1000.90 1000.93 1000.57 1000.71 1001.08 1001.59 1002.58 1002.77 1003.51 1004.30 1004.89 1005.75 1006.91 1008.27 1009.64 1010.35
1009.75 1009.20 1008.66 1008.22 1007.92 1007.64 1007.39 1007.09 1006.86 1006.55 1006.20 1005.86 1005.56 1005.04 1004.31 1003.55 1002.75 1001.80 1001.15 1000.66 1000.38 1000.13 1000.09 1000.39 1000.67 1000.92 1001.60 1001.97 1002.05 1002.20 1003.17 1003.58 1004.18 1005.22 1006.23 1007.66 1009.08 1009.82
1009.16 1008.62 1008.14 1007.78 1007.50 1007.27 1007.11 1006.84 1006.45 1006.07 1005.69 1005.45 1005.05 1004.55 1003.81 1002.88 1002.12 1001.02 1000.33 999.92 999.56 999.42 999.33 999.79 999.74 999.84 1000.53 1001.36 1002.08 1001.77 1002.27 1002.89 1003.65 1004.93 1005.92 1007.24 1007.98 1009.08
1008.45 1008.09 1007.73 1007.48 1007.31 1007.14 1006.92 1006.61 1006.25 1005.86 1005.33 1004.96 1004.36 1003.80 1003.15 1002.40 1001.42 1000.34 999.66 999.20 998.90 998.70 998.78 999.03 999.11 998.96 999.20 1000.03 1001.19 1001.80 1002.06 1002.47 1003.05 1004.21 1005.45 1007.27 1007.73 1009.03
1008.40 1008.05 1007.76 1007.47 1007.20 1006.93 1006.59 1006.26 1005.89 1005.32 1004.81 1004.30 1003.76 1003.18 1002.51 1001.83 1000.87 999.83 999.09 998.61 998.34 998.11 998.27 998.48 998.59 998.81 999.01 999.93 1000.70 1001.91 1002.44 1003.11 1002.88 1004.00 1005.12 1006.52 1008.15 1008.95
1008.19 1007.83 1007.54 1007.21 1006.83 1006.45 1006.07 1005.72 1005.28 1004.80 1004.26 1003.76 1003.21 1002.65 1001.99 1001.32 1000.56 999.54 998.73 998.26 997.87 997.73 997.84 998.20 998.34 998.68 998.90 999.21 1000.23 1001.28 1002.91 1003.62 1003.86 1004.26 1005.16 1005.52 1006.38 1007.69
1007.99 1007.57 1007.15 1006.70 1006.28 1005.94 1005.66 1005.33 1004.86 1004.29 1003.76 1003.21 1002.70 1002.10 1001.47 1000.84 1000.14 999.33 998.48 998.06 997.85 997.81 997.82 998.29 998.49 998.54 998.61 999.15 1000.15 1001.52 1002.67 1003.46 1003.72 1004.69 1006.07 1006.29 1006.09 1006.44
Wind_Speed
7 9 8 8 10 9 9 10 11 11 12 13 11 7 5 6 8 10 9 12 16 18 19 21 16 16 17 17 19 18 17 17 15 16 13 12 10 9
6 10 8 6 7 8 9 12 12 13 12 5 5 4 5 4 7 8 9 12 18 20 20 20 18 18 22 18 17 18 18 16 17 16 14 12 10 9
7 7 9 8 7 7 8 10 8 8 8 8 6 6 8 9 7 7 6 8 9 19 23 23 22 22 22 20 19 19 17 17 16 15 14 12 11 9
8 8 9 6 8 8 7 9 8 10 10 16 8 4 6 7 7 9 9 8 9 12 18 21 20 21 23 22 21 20 18 17 15 15 12 12 11 9
8 8 10 9 7 7 8 8 7 7 8 7 8 2 4 2 3 4 5 7 7 12 16 21 24 23 23 21 20 19 18 16 15 12 12 13 10 9
8 8 8 8 10 10 8 9 9 9 8 7 7 4 2 2 1 3 4 3 6 3 10 13 17 21 20 19 19 18 18 17 16 15 14 11 9 8
9 9 8 8 11 8 8 9 9 9 8 7 6 3 2 2 4 3 6 3 2 2 2 3 6 8 10 17 16 20 18 17 15 16 15 13 11 9
9 9 9 11 10 16 12 11 10 9 10 8 8 8 8 3 3 3 3 3 2 4 5 6 6 7 8 9 19 20 19 18 17 16 14 12 10 9
9 9 9 7 9 9 13 16 14 13 13 12 11 10 10 8 8 4 6 4 6 2 9 7 5 7 7 8 20 22 23 21 20 18 15 13 11 10
8 8 9 9 9 10 11 11 11 11 10 9 12 11 11 11 12 11 10 11 2 1 10 7 6 6 7 7 23 25 24 22 22 21 18 15 13 11
9 8 8 8 12 17 12 12 12 11 13 20 20 22 21 21 16 10 8 6 5 4 8 3 3 4 2 4 10 25 25 23 21 21 21 18 15 13
8 9 10 9 10 14 11 12 13 13 14 15 13 15 17 14 19 11 8 9 9 3 5 7 4 5 2 2 3 10 11 22 22 22 20 18 17 5
8 8 7 13 15 18 19 10 12 14 15 12 11 12 11 10 9 8 9 9 10 10 7 10 5 4 2 3 3 7 11 11 11 14 21 19 19 11
9 8 8 16 20 21 16 18 20 20 9 9 8 9 10 7 7 10 14 12 11 14 9 17 5 11 7 4 4 6 7 10 10 10 9 15 19 17
8 13 21 20 22 17 19 20 20 8 8 9 10 9 7 9 12 12 11 8 8 5 5 15 11 10 10 7 6 8 10 8 10 10 9 9 8 5
15 11 14 19 21 16 12 10 7 7 8 8 9 8 9 11 11 10 9 9 8 8 2 8 12 9 9 5 8 9 10 9 10 10 10 8 6 6
18 9 8 8 7 6 6 7 7 7 7 7 9 10 10 9 11 9 9 9 10 8 3 1 3 4 3 7 5 10 11 6 11 11 12 9 6 6
12 10 10 9 7 7 7 8 8 10 7 7 8 9 10 9 11 10 8 8 9 9 7 4 6 5 2 3 4 9 8 8 11 12 11 10 8 5
9 9 9 7 7 6 7 8 9 8 8 7 8 9 11 9 13 10 8 8 9 8 7 7 9 8 10 8 1 1 8 10 11 11 10 8 9 8
7 7 7 7 6 7 8 8 8 9 7 8 9 9 10 10 11 10 8 8 8 6 4 6 7 9 11 10 6 2 9 11 10 11 10 4 7 14
8 8 8 8 7 8 8 8 9 9 10 9 9 10 9 9 10 10 8 11 9 5 6 7 6 9 7 8 8 5 4 9 10 11 11 10 6 4
9 8 8 8 9 8 8 8 8 9 9 8 9 9 10 8 9 11 7 6 5 4 3 4 7 7 3 4 10 10 7 5 13 14 9 5 7 9
8 8 9 9 8 8 8 8 9 10 10 8 9 9 9 9 9 10 7 5 4 3 5 5 5 2 5 8 14 9 11 11 10 10 4 7 9 9
Wind_Direction
341 358 349 297 251 239 235 236 235 244 239 233 226 180 199 202 200 192 191 195 205 221 212 221 221 234 247 234 228 220 189 194 191 186 202 213 223 241
359 345 344 343 342 347 293 247 238 243 248 192 232 176 183 190 202 199 196 196 205 213 217 220 218 226 240 222 203 185 185 170 175 194 206 214 225 236
354 349 338 344 346 339 337 349 279 228 252 257 236 198 195 197 197 207 214 213 213 218 221 219 221 222 225 203 181 172 167 168 184 198 208 213 222 229
343 342 331 341 352 347 347 340 338 335 318 254 229 187 195 205 209 204 212 218 224 226 227 233 226 224 210 183 171 163 164 174 182 197 204 211 216 230
337 337 332 339 353 343 334 337 336 328 328 328 306 153 211 198 205 228 220 236 237 236 233 226 223 209 191 171 162 159 165 167 178 181 194 205 209 225
326 324 330 339 342 332 343 335 333 322 326 330 318 317 261 225 191 198 250 228 241 243 231 223 199 182 166 156 159 162 166 168 173 183 192 198 203 217
322 328 328 338 307 316 327 332 333 328 319 314 314 302 264 247 219 207 232 215 248 215 177 185 167 166 166 167 168 168 169 168 176 191 195 197 201 214
321 326 327 316 336 324 317 320 315 319 317 311 309 307 306 272 230 223 190 160 237 215 195 190 173 180 174 174 177 171 168 173 183 190 196 203 207 215
319 320 317 321 324 325 331 332 319 319 316 307 303 302 303 303 302 240 215 207 216 203 194 194 181 181 182 187 176 173 177 180 183 185 194 198 208 216
297 299 305 319 320 354 335 324 320 308 314 311 301 300 302 308 304 301 279 234 290 147 202 213 181 197 174 188 184 181 181 185 185 182 188 195 199 207
288 296 301 307 319 337 329 323 324 320 317 312 309 307 301 298 285 290 283 250 229 221 204 179 211 150 184 181 190 184 182 185 187 185 182 188 194 189
311 309 310 311 319 317 313 312 308 309 312 310 304 300 292 289 281 263 281 263 244 211 209 187 157 145 189 220 197 184 181 187 186 186 184 188 185 167
306 303 303 312 314 309 307 304 300 307 305 297 295 296 289 281 287 279 264 262 265 245 185 178 168 168 136 136 187 192 180 178 183 186 184 184 184 175
300 295 301 308 307 307 307 303 312 313 298 291 286 293 288 287 287 283 275 265 263 262 187 194 177 186 172 146 180 179 190 182 174 171 172 178 184 192
292 292 297 303 306 310 303 310 318 308 306 305 299 294 286 296 300 285 272 267 265 261 218 208 193 193 185 181 160 181 167 179 170 168 164 168 165 158
297 291 294 296 295 287 290 302 301 297 294 295 294 295 303 302 296 284 273 272 259 256 312 237 207 169 197 192 171 165 181 175 167 168 158 148 141 162
306 299 291 286 290 286 287 289 292 293 291 292 304 299 296 289 292 283 260 259 250 248 208 226 120 155 107 146 164 171 172 160 165 156 149 148 156 167
296 292 289 287 282 286 293 296 291 290 285 289 298 293 290 284 296 288 259 244 244 239 212 172 166 128 114 52 26 167 174 161 159 158 155 153 155 163
280 278 280 282 284 289 293 295 297 295 293 287 289 291 291 290 301 291 272 247 242 237 212 184 189 183 181 181 138 170 163 155 148 153 152 171 158 159
283 288 293 297 296 298 293 292 293 293 289 295 291 294 295 298 301 290 272 252 237 223 186 182 198 197 197 173 150 116 163 148 153 150 145 102 108 143
296 294 296 295 292 291 289 290 291 290 293 298 294 294 294 297 302 296 279 260 244 202 199 198 194 141 118 108 111 115 96 132 143 152 138 130 133 124
295 297 296 293 291 289 290 291 292 291 289 288 291 291 292 297 304 300 287 262 255 208 187 148 139 143 145 125 130 118 126 138 140 134 115 76 161 160
306 303 298 292 291 294 299 299 292 286 285 285 290 290 293 302 301 299 286 273 256 181 141 145 148 103 117 120 127 124 124 130 126 119 85 96 91 126